Location: Oshawa
(43.9000°N, 78.8670°W)
Time: 00:12:56
(UTC-04:00)

Altair - Visible Passes

Search period start: 26 April 2017 00:00
Search period end: 06 May 2017 00:00
Orbit: 1502 x 1682 km, 47.2° (Epoch: 24 April)

Date Brightness Start Highest point End Pass type
(mag) Time Alt. Az. Time Alt. Az. Time Alt. Az.
26 Apr 7.3 00:31:17 10° WNW 00:40:43 86° SSW 00:42:45 61° ESE visible
26 Apr 8.4 02:36:27 10° WNW 02:40:43 26° W 02:40:43 26° W visible
26 Apr 7.7 22:00:46 10° W 22:10:22 73° N 22:19:40 10° E visible
27 Apr 7.3 00:06:06 10° WNW 00:15:34 89° SSW 00:18:23 52° ESE visible
27 Apr 8.2 02:11:13 10° WNW 02:16:22 31° W 02:16:22 31° W visible
27 Apr 7.7 21:35:31 10° W 21:45:11 73° N 21:54:29 10° E visible
27 Apr 7.3 23:40:54 10° WNW 23:50:24 88° NNE 23:54:06 43° ESE visible
28 Apr 8.0 01:45:59 10° WNW 01:52:04 37° WSW 01:52:04 37° WSW visible
28 Apr 7.7 21:10:16 10° W 21:19:58 74° N 21:29:19 10° E visible
28 Apr 7.4 23:15:42 10° WNW 23:25:15 85° NNE 23:29:51 35° ESE visible
29 Apr 7.8 01:20:45 10° WNW 01:27:50 43° WSW 01:27:50 43° WSW visible
29 Apr 7.8 20:45:00 10° W 20:54:45 75° N 21:04:08 10° ENE visible
29 Apr 7.4 22:50:29 10° WNW 23:00:04 83° NNE 23:05:39 28° ESE visible
30 Apr 7.6 00:55:32 10° WNW 01:03:39 49° SW 01:03:39 49° SW visible
30 Apr 7.5 22:25:16 10° WNW 22:34:54 81° NNE 22:41:29 22° E visible
01 May 7.5 00:30:19 10° WNW 00:39:20 54° SW 00:39:29 54° SW visible
01 May 9.2 02:37:27 10° W 02:37:28 10° W 02:37:28 10° W visible
01 May 7.5 22:00:03 10° WNW 22:09:42 79° NNE 22:17:21 17° E visible
02 May 7.4 00:05:07 10° WNW 00:14:15 58° SW 00:15:21 55° S visible
02 May 9.1 02:11:48 10° W 02:13:20 13° W 02:13:20 13° W visible
02 May 7.6 21:34:49 10° WNW 21:44:30 78° N 21:53:15 12° E visible
02 May 7.4 23:39:55 10° WNW 23:49:10 61° SW 23:51:15 51° SSE visible
03 May 8.9 01:46:16 10° W 01:49:15 17° WSW 01:49:15 17° WSW visible
03 May 7.7 21:09:34 10° WNW 21:19:18 76° N 21:28:39 10° E visible
03 May 7.4 23:14:42 10° WNW 23:24:03 65° SSW 23:27:11 44° SSE visible
04 May 8.7 01:20:47 10° W 01:25:11 20° WSW 01:25:11 20° WSW visible
04 May 7.7 20:44:20 10° WNW 20:54:06 75° N 21:03:28 10° E visible
04 May 7.4 22:49:30 10° WNW 22:58:56 69° SSW 23:03:09 36° SE visible
05 May 8.6 00:55:22 10° W 01:01:09 24° WSW 01:01:09 24° WSW visible
05 May 7.5 22:24:18 10° WNW 22:33:50 73° SSW 22:39:09 29° SE visible
